Weather History for New Bedford, MA

Change the Weather History Date:

Saturday, August 30, 2014

  Actual Average Record
Temperature  
Mean Temperature 60 °F -  
Max Temperature 73 °F 79 °F 100 °F (1973)
Min Temperature 46 °F 63 °F 46 °F (2014)
Degree Days  
Heating Degree Days 6    
Growing Degree Days 10 (Base 50)    
Moisture  
Dew Point 55 °F    
Average Humidity 80    
Maximum Humidity 100    
Minimum Humidity 57    
Precipitation  
Precipitation 0.00 in - - ()
Sea Level Pressure  
Sea Level Pressure 30.26 in    
Wind  
Wind Speed 3 mph (South)    
Max Wind Speed 13 mph    
Max Gust Speed 18 mph    
Visibility 10 miles    
Events      
Averages and records for this station are not official NWS values.
T = Trace of Precipitation, MM = Missing Value Source: NWS Daily Summary

Daily Weather History Graph

Daily Weather History Graph

Search for Another Location

Airport:

Trip Planner

Search our weather history database for the weather conditions in past years. The results will help you decide how hot, cold, wet, or windy it might be!

Date:

Astronomy

Aug. 30, 2014 Rise Set
Actual Time 6:07 AM EDT 7:20 PM EDT
Civil Twilight 5:38 AM EDT 7:49 PM EDT
Nautical Twilight 5:04 AM EDT 8:23 PM EDT
Astronomical Twilight 4:28 AM EDT 8:59 PM EDT
Moon 10:56 AM EDT (8/30) 9:48 PM EDT (8/30)
Length of Visible Light 14h 10m
Length of Day
13h 12m
Waxing Crescent, 23% of the Moon is Illuminated
Aug 30
Waxing Crescent
Sep 2
First Quarter
Sep 8
Full
Sep 15
Last Quarter
Sep 24
New

Hourly Weather History & Observations

Time (EDT) Temp. Dew Point Humidity Pressure Visibility Wind Dir Wind Speed Gust Speed Precip Events Conditions
12:53 AM 51.1 °F 48.9 °F 92% 30.28 in 10.0 mi Calm Calm - N/A   Clear
1:53 AM 51.1 °F 50.0 °F 96% 30.30 in 10.0 mi Calm Calm - N/A   Clear
2:53 AM 50.0 °F 48.9 °F 96% 30.30 in 10.0 mi Calm Calm - N/A   Clear
3:53 AM 48.2 °F 46.4 °F 93% 30.29 in 4.0 mi Calm Calm - N/A   Clear
4:53 AM 46.9 °F 46.0 °F 97% 30.28 in 10.0 mi Calm Calm - N/A   Clear
5:53 AM 46.9 °F 46.9 °F 100% 30.30 in 10.0 mi Calm Calm - N/A   Mostly Cloudy
6:01 AM 48.0 °F 46.0 °F 93% 30.30 in 10.0 mi Calm Calm - N/A   Scattered Clouds
6:53 AM 48.9 °F 48.0 °F 97% 30.31 in 10.0 mi Calm Calm - N/A   Clear
7:53 AM 57.0 °F 54.0 °F 89% 30.31 in 10.0 mi Calm Calm - N/A   Clear
8:53 AM 66.0 °F 57.0 °F 73% 30.31 in 10.0 mi SSE 6.9 mph - N/A   Scattered Clouds
9:53 AM 68.0 °F 55.9 °F 65% 30.30 in 10.0 mi SSW 9.2 mph - N/A   Clear
10:53 AM 69.1 °F 55.9 °F 63% 30.30 in 10.0 mi South 8.1 mph - N/A   Partly Cloudy
11:38 AM 70.0 °F 55.9 °F 61% 30.29 in 10.0 mi SSW 10.4 mph - N/A   Mostly Cloudy
11:53 AM 70.0 °F 55.9 °F 61% 30.29 in 10.0 mi SSW 8.1 mph - N/A   Scattered Clouds
12:53 PM 72.0 °F 55.9 °F 57% 30.27 in 10.0 mi South 11.5 mph 17.3 mph N/A   Clear
1:53 PM 73.0 °F 57.0 °F 57% 30.26 in 10.0 mi South 11.5 mph - N/A   Clear
2:53 PM 73.0 °F 57.9 °F 59% 30.24 in 10.0 mi South 11.5 mph 18.4 mph N/A   Partly Cloudy
3:53 PM 72.0 °F 57.9 °F 61% 30.22 in 10.0 mi SSW 12.7 mph - N/A   Partly Cloudy
4:53 PM 71.1 °F 59.0 °F 66% 30.21 in 10.0 mi South 10.4 mph - N/A   Mostly Cloudy
5:53 PM 71.1 °F 59.0 °F 66% 30.19 in 10.0 mi South 12.7 mph - N/A   Mostly Cloudy
6:53 PM 68.0 °F 60.1 °F 76% 30.19 in 10.0 mi South 9.2 mph - N/A   Partly Cloudy
7:53 PM 66.0 °F 60.1 °F 81% 30.18 in 10.0 mi South 6.9 mph - N/A   Clear
8:53 PM 64.0 °F 61.0 °F 90% 30.19 in 10.0 mi Calm Calm - N/A   Clear
9:53 PM 63.0 °F 61.0 °F 93% 30.18 in 10.0 mi SSW 3.5 mph - N/A   Clear
10:53 PM 62.6 °F 60.8 °F 94% 30.17 in 10.0 mi SSW 3.5 mph - N/A   Clear
11:53 PM 63.0 °F 61.0 °F 93% 30.17 in 10.0 mi Calm Calm - N/A   Clear